Location: *
(46.1833°N, 22.7667°E)
Time: 03:00:47
(UTC+00:00)

Cosmos 1674 - Pass Details

Date: 17 September 2019
Orbit: 495 x 520 km, 82.5° (Epoch: 15 October)

Event Time Altitude Azimuth Distance (km) Brightness Sun altitude
Rises 18:35:06 0° 357° (N) 2,600 6.7 -20.4°
Reaches altitude 10° 18:37:18 10° 4° (N) 1,708 5.6 -20.8°
Enters shadow 18:39:48 33° 34° (NE) 854 3.7 -21.1°
